SCP
0 0 0 0 0 0 0 0 0 0 0 0 0 0 0 0 0 0 0 0 0 0 0 0 0 0 0 0 0 0 1 1 2 2 3 3 3 3 2 2 2 1 1 1
0 0 0 0 0 0 0 0 0 0 0 0 0 0 0 0 0 0 0 0 0 0 0 0 0 0 0 0 0 0 0 1 1 2 3 3 3 3 3 2 2 2 1 1
0 0 0 0 0 0 0 0 0 0 0 0 0 0 0 0 0 0 0 0 0 0 0 0 0 0 0 0 0 0 0 0 1 1 2 3 3 3 3 3 3 2 2 2
0 0 0 0 0 0 0 0 0 0 0 0 0 0 0 0 0 0 0 0 0 0 0 0 0 0 0 0 0 0 0 0 0 1 1 2 3 3 3 3 3 3 3 3
0 0 0 0 0 0 0 0 0 0 0 0 0 0 0 0 0 0 0 0 0 0 0 0 0 0 0 0 0 0 0 0 0 0 1 1 2 2 3 3 3 3 4 4
0 0 0 0 0 0 0 0 0 0 0 0 0 0 0 0 0 0 0 0 0 0 0 0 0 0 0 0 0 0 0 0 0 0 0 1 2 2 2 2 3 3 4 4
0 0 0 0 0 0 0 0 0 0 0 0 0 0 0 0 0 0 0 0 0 0 0 0 0 0 0 0 0 0 0 0 0 0 0 0 1 2 2 2 2 3 3 3
0 0 0 0 0 0 0 0 0 0 0 0 0 0 0 0 0 0 0 0 0 0 0 0 0 0 0 0 0 0 0 0 0 0 0 0 0 1 1 2 2 2 2 3
0 0 0 0 0 0 0 0 0 0 0 0 0 0 0 0 0 0 0 0 0 0 0 0 0 0 0 0 0 0 0 0 0 0 0 0 0 0 1 1 2 2 2 2
0 0 0 0 0 0 0 0 0 0 0 0 0 0 0 0 0 0 0 0 0 0 0 0 0 0 0 0 0 0 0 0 0 0 0 0 0 0 0 1 1 2 2 1
0 0 0 0 0 0 0 0 0 0 0 0 0 0 0 0 0 0 0 0 0 0 0 0 0 0 0 0 0 0 0 0 0 0 0 0 0 0 0 0 1 1 1 1
0 0 0 0 0 0 0 0 0 0 0 0 0 0 0 0 0 0 0 0 0 0 0 0 0 0 0 0 0 0 0 0 0 0 0 0 0 0 0 0 0 0 0 0
0 0 0 0 0 0 0 0 0 0 0 0 0 0 0 0 0 0 0 0 0 0 0 0 0 0 0 0 0 0 0 0 0 0 0 0 0 0 0 0 0 0 0 0
0 0 0 0 0 0 0 0 0 0 0 0 0 0 0 0 0 0 0 0 0 0 0 0 0 0 0 0 0 0 0 0 0 0 0 0 0 0 0 0 0 0 0 0
0 0 0 0 0 0 0 0 0 0 0 0 0 0 0 0 0 0 0 0 0 0 0 0 0 0 0 0 0 0 0 0 0 0 0 0 0 0 0 0 0 0 0 0
0 0 0 0 0 0 0 0 0 0 0 0 0 0 0 0 0 0 0 0 0 0 0 0 0 0 0 0 0 0 0 0 0 0 0 0 0 0 0 0 0 0 0 0
0 0 0 0 0 0 0 0 0 0 0 0 0 0 0 0 0 0 0 0 0 0 0 0 0 0 0 0 0 0 0 0 0 0 0 0 0 0 0 0 0 0 0 0
0 0 0 0 0 0 0 0 0 0 0 0 0 0 0 0 0 0 0 0 0 0 0 0 0 0 0 0 0 0 0 0 0 0 0 0 0 0 0 0 0 0 0 0
0 0 0 0 0 0 0 0 0 0 0 0 0 0 0 0 0 0 0 0 0 0 0 0 0 0 0 0 0 0 0 0 0 0 0 0 0 0 0 0 0 0 0 0
0 0 0 0 0 0 0 0 0 0 0 0 0 0 0 0 0 0 0 0 0 0 0 0 0 0 0 0 0 0 0 0 0 0 0 0 0 0 0 0 0 0 0 0
0 0 0 0 0 0 0 0 0 0 0 0 0 0 0 0 0 0 0 0 0 0 0 0 0 0 0 0 0 0 0 0 0 0 0 0 0 0 0 0 0 0 0 0
0 0 0 0 0 0 0 0 0 0 0 0 0 0 0 0 0 0 0 0 0 0 0 0 0 0 0 0 0 0 0 0 0 0 0 0 0 0 0 0 0 0 0 0
0 0 0 0 0 0 0 0 0 0 0 0 0 0 0 0 0 0 0 0 0 0 0 0 0 0 0 0 0 0 0 0 0 0 0 0 0 0 0 0 0 0 0 0
0 0 0 0 0 0 0 0 0 0 0 0 0 0 0 0 0 0 0 0 0 0 0 0 0 0 0 0 0 0 0 0 0 0 0 0 0 0 0 0 0 0 0 0
0 0 0 0 0 0 0 0 0 0 0 0 0 0 0 0 0 0 0 0 0 0 0 0 0 0 0 0 0 0 0 0 0 0 0 0 0 0 0 0 0 0 0 0
0 0 0 0 0 0 0 0 0 0 0 0 0 0 0 0 0 0 0 0 0 0 0 0 0 0 0 0 0 0 0 0 0 0 0 0 0 0 0 0 0 0 0 0
Wind_Speed
11 10 14 18 15 4 12 11 10 7 4 5 8 9 10 10 10 11 10 8 7 6 6 5 5 5 5 6 7 9 10 11 10 9 9 10 11 11 11 11 14 15 14 15
8 12 14 14 11 7 11 11 8 6 3 3 4 9 8 4 4 4 3 3 2 2 2 3 3 3 3 4 5 7 8 9 10 9 10 10 11 10 11 10 12 15 15 15
7 8 12 14 14 11 9 9 8 6 4 3 4 5 4 4 4 5 4 4 4 4 4 5 5 5 4 4 5 5 6 7 8 9 9 8 9 9 9 11 12 15 17 16
4 7 13 15 14 12 8 5 6 5 4 3 2 3 6 6 7 7 7 7 7 6 6 7 7 7 7 6 5 5 5 6 6 7 8 12 11 13 14 12 12 14 16 16
5 8 14 14 11 9 5 6 5 2 2 2 4 5 6 7 7 7 7 7 6 6 6 7 7 7 7 6 6 6 6 5 5 6 7 10 12 12 11 12 14 14 13 15
6 4 3 5 5 8 10 7 5 2 2 6 5 7 6 7 8 8 5 5 6 6 6 7 7 7 7 7 7 7 7 7 6 6 6 9 11 13 13 14 13 12 10 11
5 4 4 4 8 6 6 6 4 5 5 5 4 5 4 6 6 6 4 3 5 6 6 7 8 9 9 9 9 9 9 9 8 7 7 8 10 11 13 13 13 13 11 10
6 5 3 3 4 7 7 6 4 4 5 4 5 6 3 5 3 3 3 2 4 5 6 7 8 8 9 10 10 10 10 10 9 9 8 8 8 8 8 11 11 11 10 10
6 6 3 3 3 6 7 5 1 1 1 3 5 4 3 4 6 6 3 2 3 5 5 6 7 8 8 9 10 10 10 10 10 10 10 9 8 8 9 10 10 9 9 7
6 8 5 5 5 5 1 5 4 4 4 4 4 5 8 13 11 6 1 3 5 5 5 6 7 8 8 8 9 9 9 10 10 10 9 7 8 8 8 7 8 7 6 5
5 7 6 5 5 6 6 4 3 3 2 3 3 4 5 12 9 3 2 5 6 6 6 6 7 7 8 8 8 9 9 10 10 10 9 8 8 7 6 5 5 4 3 3
3 5 5 3 2 1 3 5 6 4 4 3 2 3 4 7 5 2 4 5 5 5 5 6 7 7 8 9 9 9 9 10 10 9 8 8 7 6 5 5 4 3 2 1
5 6 7 4 4 4 5 5 5 2 2 3 4 4 4 4 4 4 5 6 5 4 5 6 6 7 8 8 9 9 9 9 9 9 8 8 8 8 7 7 6 5 5 5
4 3 3 3 2 7 7 9 9 6 4 5 6 2 4 4 4 6 7 6 5 4 4 6 6 7 7 8 8 8 8 9 9 9 9 10 10 9 9 8 8 8 8 8
2 3 2 1 2 4 5 9 13 11 8 7 4 5 6 6 7 8 7 6 4 3 4 5 6 6 7 7 7 7 8 8 8 8 9 10 9 10 10 10 10 11 11 11
3 3 3 1 2 4 6 9 13 13 13 12 11 11 9 7 6 7 7 6 4 3 3 4 5 6 6 7 7 7 7 7 8 9 9 9 9 10 10 10 11 11 12 11
4 5 3 2 1 3 8 11 15 11 10 11 13 10 7 8 8 8 7 4 2 1 2 3 4 5 5 6 6 6 6 7 8 9 9 9 9 9 10 10 11 11 11 11
6 5 2 1 2 7 1 2 8 12 12 12 10 10 10 10 9 7 3 1 1 1 0 1 2 3 4 4 5 5 6 7 8 8 9 8 8 9 9 10 11 11 10 10
4 5 3 2 4 6 4 4 6 7 6 10 13 13 11 8 6 3 3 2 2 2 1 1 2 2 3 4 5 5 6 7 8 8 8 8 8 8 9 9 10 9 9 10
3 3 3 3 4 4 1 3 4 4 3 3 6 6 5 3 4 1 5 4 3 3 2 2 2 3 3 4 4 5 6 7 8 7 7 7 7 8 9 9 9 8 8 9
5 4 5 5 5 6 2 3 5 4 3 2 2 4 4 4 3 3 6 5 4 4 4 3 3 3 3 4 4 6 6 7 6 6 7 7 8 8 8 8 7 8 8 8
9 7 7 6 7 5 4 6 5 0 1 1 3 3 4 4 1 4 5 6 6 5 5 4 4 4 3 3 5 6 6 5 5 6 7 7 7 7 6 7 7 6 7 7
8 7 4 6 4 2 3 3 1 1 3 3 3 3 3 4 4 5 6 7 7 6 6 5 5 5 4 3 4 6 5 5 6 7 7 7 7 6 6 6 6 5 5 4
6 5 5 5 6 5 4 4 2 2 3 3 3 4 4 5 5 6 7 7 7 7 7 7 7 6 5 5 5 6 6 6 7 8 7 6 6 6 6 5 4 4 4 3
5 7 6 7 4 3 3 2 0 1 2 2 3 3 4 5 6 7 7 8 8 8 7 7 7 7 7 6 6 6 6 7 7 7 6 6 5 5 5 5 5 4 4 3
6 7 7 5 4 3 3 2 1 2 3 4 4 4 3 5 6 7 7 8 8 9 8 8 8 8 8 7 6 6 6 7 7 6 5 4 4 4 4 5 5 7 6 6
Wind_Direction
172 181 186 185 190 203 176 181 177 171 146 207 224 246 256 261 258 258 259 260 262 272 290 303 304 295 278 265 257 253 249 243 238 230 224 221 223 224 224 226 229 229 226 220
161 196 186 175 170 158 170 177 166 142 142 232 245 259 265 281 265 268 268 269 286 309 333 350 339 327 307 289 278 268 260 256 248 240 236 233 233 231 229 226 228 227 226 222
167 169 167 170 172 166 172 181 167 149 150 163 271 230 144 107 109 101 93 83 69 49 44 42 37 30 13 349 322 299 284 274 264 258 250 244 239 237 233 230 228 226 224 222
137 155 169 175 182 183 174 165 154 157 199 177 286 223 137 130 118 102 95 84 72 62 53 43 35 31 23 8 347 322 305 289 278 265 250 243 238 236 235 234 234 231 226 223
132 158 171 179 182 181 133 123 126 146 200 234 212 240 152 158 141 119 97 76 59 44 34 29 22 14 10 4 355 344 330 315 300 276 258 252 249 249 249 245 243 239 232 226
87 78 119 144 113 127 122 107 91 106 214 235 201 222 177 170 156 139 113 72 43 28 22 21 17 9 6 1 354 345 338 332 324 302 275 256 254 254 253 249 247 244 239 232
96 77 74 106 112 124 155 159 169 187 205 216 141 226 211 142 147 148 120 47 18 12 11 9 6 2 358 354 349 340 335 327 325 314 296 279 266 261 257 255 252 248 245 238
130 126 119 133 150 164 179 205 226 212 200 158 178 226 142 141 161 195 226 309 344 0 5 3 360 353 349 345 342 339 333 326 323 317 308 297 284 269 262 258 257 254 251 246
132 116 100 92 112 155 164 191 332 33 92 227 195 212 216 184 187 194 210 298 350 359 1 359 355 351 347 343 341 338 331 327 325 321 314 305 297 285 276 272 266 263 259 258
117 120 131 133 118 58 106 144 168 197 216 220 185 200 174 170 172 175 213 349 355 355 357 358 354 352 349 346 342 340 338 332 328 325 320 313 308 301 291 281 274 267 265 256
112 121 139 164 187 167 153 167 182 176 262 254 194 137 135 162 161 165 348 352 347 350 355 355 353 353 352 353 353 352 349 344 341 337 331 326 322 320 315 308 301 293 280 256
101 119 131 131 51 263 214 189 180 203 199 233 274 116 120 168 173 237 319 339 348 355 360 358 358 359 1 360 358 357 354 353 350 347 346 348 348 348 350 351 351 351 354 32
135 132 134 153 182 188 206 189 189 144 139 193 225 131 123 185 218 278 316 335 349 358 5 4 7 8 5 1 0 0 1 359 360 3 7 12 12 14 17 20 25 32 43 60
121 139 200 192 156 168 190 192 187 178 197 205 234 228 185 214 277 317 332 337 344 2 8 8 7 8 6 5 6 6 9 9 12 19 26 27 25 28 33 39 44 50 56 64
125 132 133 104 119 169 201 198 197 207 215 223 234 247 261 285 301 310 317 324 329 351 7 9 6 4 5 8 10 12 16 19 23 33 38 37 37 42 47 51 55 59 62 66
119 128 139 175 191 219 238 224 213 220 228 239 257 272 271 284 289 293 307 316 316 340 1 8 6 3 6 9 11 15 25 29 36 44 44 43 46 50 54 58 62 65 67 69
151 150 173 191 171 242 248 226 209 208 213 220 233 244 271 287 299 310 315 304 297 335 4 9 7 4 7 13 15 23 34 43 49 53 52 49 53 57 60 64 66 67 68 70
159 156 167 197 206 240 209 123 205 217 227 223 239 254 271 286 305 310 303 254 172 141 67 32 14 14 19 27 35 41 49 54 57 57 57 56 61 64 65 66 67 67 68 71
173 169 181 211 249 270 263 196 183 196 233 224 234 255 271 292 286 227 146 134 118 120 103 72 42 36 41 47 50 59 61 61 62 60 60 61 67 72 72 71 71 71 73 71
139 182 197 208 247 251 112 123 170 192 197 163 208 248 275 274 272 119 145 150 142 136 131 118 105 87 71 62 70 76 71 68 65 64 67 70 74 78 78 77 76 76 79 80
168 184 208 222 249 269 239 148 164 211 145 144 234 269 267 249 288 95 145 152 149 145 137 130 120 100 81 84 93 89 81 74 73 76 77 76 77 80 83 83 82 86 89 90
188 191 200 206 227 245 140 165 199 39 64 262 269 273 267 253 205 164 169 163 161 156 150 147 135 116 102 109 112 102 89 87 90 88 83 79 79 82 86 90 88 92 98 98
208 208 204 216 233 47 164 201 254 310 272 280 278 279 260 234 213 191 182 174 171 166 158 156 147 134 124 122 124 114 110 114 107 97 91 89 87 84 89 95 99 97 93 93
208 205 222 243 249 243 244 248 266 270 269 284 282 278 252 239 216 194 183 178 174 170 167 163 159 153 144 135 129 125 129 128 119 111 106 102 98 93 88 86 85 88 90 95
197 182 210 238 248 244 215 172 350 327 304 294 291 271 257 240 217 198 187 182 178 173 170 171 169 161 153 149 142 138 141 139 128 120 115 109 103 103 93 83 74 77 72 59
195 197 203 222 200 206 164 116 3 321 315 312 298 283 254 231 220 200 192 183 178 175 172 174 172 167 162 159 153 150 151 151 142 133 129 123 119 114 113 112 101 76 79 85